This is the latest recevied weather packets stored in our database for station/object KN6ETB-1. If no packets are shown the sender has not sent any weather packets the latest 10 day(s).
| Time | Temp. | Humidity | Pressure | Rain* | Wind** | Luminosity | Snow |
|---|---|---|---|---|---|---|---|
| 1777781625 | 13.33° C | 80% | 1007.9 hPa | 0 mm | - | 0 W/m² | - |
| 1777781323 | 13.33° C | 80% | 1007.7 hPa | 0 mm | - | 0 W/m² | - |
| 1777781021 | 13.33° C | 80% | 1007.6 hPa | 0 mm | - | 0 W/m² | - |
| 1777780717 | 13.33° C | 79% | 1007.5 hPa | 0 mm | - | 0 W/m² | - |
| 1777780414 | 13.33° C | 79% | 1007.6 hPa | 0 mm | - | 0 W/m² | - |
| 1777780111 | 13.33° C | 79% | 1007.6 hPa | 0 mm | - | 0 W/m² | - |
| 1777779809 | 13.89° C | 79% | 1007.4 hPa | 0 mm | - | 0 W/m² | - |
| 1777779506 | 13.89° C | 78% | 1007.5 hPa | 0 mm | - | 0 W/m² | - |
| 1777779203 | 13.89° C | 78% | 1007.6 hPa | 0 mm | - | 0 W/m² | - |
| 1777778901 | 13.89° C | 77% | 1007.4 hPa | 0 mm | - | 0 W/m² | - |
| 1777778600 | 13.89° C | 77% | 1007.3 hPa | 0 mm | - | 0 W/m² | - |
| 1777778297 | 13.89° C | 77% | 1007.1 hPa | 0 mm | - | 0 W/m² | - |
| 1777777995 | 14.44° C | 77% | 1006.9 hPa | 0 mm | - | 0 W/m² | - |
| 1777777691 | 14.44° C | 76% | 1006.9 hPa | 0 mm | - | 0 W/m² | - |
| 1777777388 | 15° C | 75% | 1006.9 hPa | 0 mm | - | 0 W/m² | - |
| 1777777084 | 15° C | 75% | 1006.8 hPa | 0 mm | - | 0 W/m² | - |
| 1777776782 | 15° C | 74% | 1006.9 hPa | 0 mm | - | 2 W/m² | - |
| 1777776478 | 15° C | 74% | 1007.1 hPa | 0 mm | - | 6 W/m² | - |
| 1777776175 | 15.56° C | 73% | 1007.1 hPa | 0 mm | - | 9 W/m² | - |
| 1777775872 | 15.56° C | 73% | 1006.9 hPa | 0 mm | - | 14 W/m² | - |
| 1777775569 | 15.56° C | 72% | 1006.9 hPa | 0 mm | - | 20 W/m² | - |
| 1777775265 | 15.56° C | 72% | 1006.8 hPa | 0 mm | - | 24 W/m² | - |
| 1777774960 | 16.11° C | 71% | 1006.8 hPa | 0 mm | - | 27 W/m² | - |
| 1777774657 | 16.11° C | 70% | 1006.9 hPa | 0 mm | - | 32 W/m² | - |
| 1777774353 | 16.11° C | 70% | 1006.9 hPa | 0 mm | - | 39 W/m² | - |
* Rain latest hour (hover to see other rain measurements)
** Current wind speed in m/s (hover to see current wind gust speed)